Location: Nirvana
(45.0297°N, 77.2628°W)
Time: 19:43:04
(UTC-05:00)

Envisat - Pass Details

Date: 26 October 2019
Orbit: 764 x 766 km, 98.1° (Epoch: 16 November)

Event Time Altitude Azimuth Distance (km) Brightness Sun altitude
Rises 19:46:40 0° 186° (S) 3,218 6.3 -18.3°
Reaches altitude 10° 19:49:06 10° 194° (SSW) 2,296 5.6 -18.8°
Maximum altitude 19:53:49 39° 263° (W) 1,138 4.4 -19.6°
Drops below altitude 10° 19:58:35 10° 332° (NNW) 2,312 5.9 -20.4°
Sets 20:01:03 0° 340° (NNW) 3,242 6.5 -20.9°
